Location: Geography Hall
(41.1195°N, 80.5706°W)
Time: 00:27:03
(UTC+00:00)

ATLAS 2AS CENTAUR R/B - Pass Details

Date: 29 October 2020
Orbit: 939 x 1273 km, 63.7° (Epoch: 23 November)

Event Time Altitude Azimuth Distance (km) Brightness Sun altitude
Rises 23:36:36 0° 327° (NNW) 4,163 6.2 -14.8°
Reaches altitude 10° 23:40:01 10° 339° (NNW) 3,151 5.3 -15.4°
Maximum altitude 23:46:12 27° 35° (NE) 2,071 3.9 -16.6°
Enters shadow 23:48:38 22° 64° (ENE) 2,232 3.8 -17.0°
